Terminal Aerodrome Forecast
Issued by NWS

Home | Current Version | Previous Version | Text Only | Print | Product List | Glossary On
Versions: 1 2 3 4 5 6 7 8 9 10 11 12 13 14 15 16 17
000
FTUS45 KPSR 040525
TAFIPL
TAF
KIPL 040525Z 0406/0506 25008KT P6SM SCT150 OVC250
     FM041200 VRB06KT P6SM BKN250
     FM041800 15010KT P6SM SCT250=

USA.gov is the U.S. government's official web portal to all federal, state and local government web resources and services.